Quincy, IL

10:37 PM CST on November 19, 2019 (GMT -0600)
Quincy Regional-Baldwin

Weather History for KUIN - September, 2019

Change the Weather History Date:

Friday, September 6, 2019

  Actual Average Record
Temperature  
Mean Temperature 71 °F 70 °F  
Max Temperature 81 °F 81 °F 101 °F (1922)
Min Temperature 61 °F 60 °F 43 °F (2011)
Degree Days  
Heating Degree Days 0 1  
Month to date heating degree days 0 5  
Since 1 July heating degree days 2 10  
Cooling Degree Days 6 6  
Month to date cooling degree days 39 40  
Year to date cooling degree days 1096 993  
Growing Degree Days 21 (Base 50)    
Moisture  
Dew Point 64 °F    
Average Humidity 74    
Maximum Humidity 93    
Minimum Humidity 54    
Precipitation  
Precipitation 0.00 in 0.11 in 2.21 in (2018)
Month to date precipitation 0.00 0.66  
Year to date precipitation 31.03 26.41  
Sea Level Pressure  
Sea Level Pressure 29.98 in    
Wind  
Wind Speed 7 mph ()    
Max Wind Speed 18 mph    
Max Gust Speed 29 mph    
Visibility 10.0 miles    
Events      
T = Trace of Precipitation, MM = Missing Value Source: Averaged Metar Reports

Daily Weather History Graph

Daily Weather History Graph

Search for Another Location

Airport or City:

Astronomy

Sep. 06, 2019 Rise Set
Actual Time 6:37 AM CDT 7:28 PM CDT
Civil Twilight 6:09 AM CDT 7:55 PM CDT
Nautical Twilight 5:36 AM CDT 8:28 PM CDT
Astronomical Twilight 5:03 AM CDT 9:02 PM CDT
Moon 2:45 PM CDT (9/6) No Moon Set
Length of Visible Light 13h 46m
Length of Day
12h 51m
First Quarter, 56% of the Moon is Illuminated
Sep 6
First Quarter
Sep 13
Full
Sep 21
Last Quarter
Sep 28
New
Oct 5
First Quarter

Hourly Weather History & Observations

Time (CDT) Temp. Heat Index Dew Point Humidity Pressure Visibility Wind Dir Wind Speed Gust Speed Precip Events Conditions
12:54 AM 69.1 °F - 63.0 °F 81% 29.96 in 10.0 mi South 4.6 mph - N/A   Clear
1:54 AM 69.1 °F - 63.0 °F 81% 29.96 in 10.0 mi South 5.8 mph - N/A   Clear
2:54 AM 68.0 °F - 63.0 °F 84% 29.94 in 10.0 mi SSW 9.2 mph - N/A   Clear
3:54 AM 68.0 °F - 64.0 °F 87% 29.93 in 10.0 mi SSW 8.1 mph - N/A   Clear
4:54 AM 66.9 °F - 64.0 °F 90% 29.92 in 10.0 mi SSW 6.9 mph - N/A   Clear
5:54 AM 68.0 °F - 64.9 °F 90% 29.92 in 10.0 mi SW 5.8 mph - N/A   Clear
6:42 AM 70.0 °F - 66.0 °F 87% 29.95 in 10.0 mi West 6.9 mph - N/A   Mostly Cloudy
6:54 AM 71.1 °F - 66.9 °F 87% 29.94 in 10.0 mi West 6.9 mph - N/A   Overcast
7:29 AM 72.0 °F - 68.0 °F 87% 29.96 in 9.0 mi WNW 9.2 mph - N/A   Scattered Clouds
7:54 AM 73.0 °F - 69.1 °F 87% 29.95 in 10.0 mi WNW 10.4 mph - N/A   Scattered Clouds
8:54 AM 73.9 °F - 66.9 °F 79% 29.96 in 10.0 mi NNW 11.5 mph - N/A   Clear
9:54 AM 75.0 °F - 64.0 °F 69% 29.98 in 10.0 mi NNW 13.8 mph - N/A   Clear
10:54 AM 75.0 °F - 63.0 °F 66% 30.00 in 10.0 mi NNW 12.7 mph - N/A   Clear
11:54 AM 78.1 °F - 63.0 °F 60% 29.99 in 10.0 mi North 15.0 mph - N/A   Clear
12:54 PM 79.0 °F - 64.0 °F 60% 30.00 in 10.0 mi NNW 11.5 mph - N/A   Clear
1:54 PM 80.1 °F 81.7 °F 64.0 °F 58% 30.00 in 10.0 mi NNW 13.8 mph - N/A   Clear
2:54 PM 80.1 °F 81.5 °F 63.0 °F 56% 29.99 in 10.0 mi NNW 13.8 mph 28.8 mph N/A   Clear
3:54 PM 80.1 °F 81.5 °F 63.0 °F 56% 29.99 in 10.0 mi North 10.4 mph 23.0 mph N/A   Clear
4:54 PM 80.1 °F 81.2 °F 62.1 °F 54% 30.00 in 10.0 mi NNW 11.5 mph - N/A   Clear
5:54 PM 79.0 °F - 61.0 °F 54% 30.00 in 10.0 mi North 12.7 mph - N/A   Clear
6:54 PM 75.9 °F - 62.1 °F 62% 30.01 in 10.0 mi North 4.6 mph - N/A   Clear
7:54 PM 71.1 °F - 63.0 °F 75% 30.02 in 10.0 mi NNW 5.8 mph - N/A   Clear
8:54 PM 69.1 °F - 62.1 °F 78% 30.03 in 10.0 mi North 6.9 mph - N/A   Clear
9:54 PM 68.0 °F - 61.0 °F 78% 30.04 in 10.0 mi North 5.8 mph - N/A   Clear
10:54 PM 66.0 °F - 60.1 °F 81% 30.05 in 10.0 mi North 5.8 mph - N/A   Clear
11:54 PM 63.0 °F - 59.0 °F 87% 30.06 in 10.0 mi NNE 6.9 mph - N/A   Clear